Ocean City, MD

2:46 AM EDT on May 27, 2017 (GMT -0400)
Ocean City Municipal

Weather History for KOXB - January, 2013

Change the Weather History Date:

Wednesday, January 23, 2013

  Actual Average (KSBY) Record (KSBY)
Temperature  
Mean Temperature 20 °F -  
Max Temperature 26 °F 47 °F 73 °F (1999)
Min Temperature 15 °F 27 °F -1 °F (1970)
Degree Days  
Heating Degree Days 44    
Moisture  
Dew Point 3 °F    
Average Humidity 48    
Maximum Humidity 71    
Minimum Humidity 29    
Precipitation  
Precipitation 0.00 in - - ()
Sea Level Pressure  
Sea Level Pressure 30.27 in    
Wind  
Wind Speed 8 mph (NW)    
Max Wind Speed 14 mph    
Max Gust Speed 26 mph    
Visibility 10 miles    
Events      
Averages and records for this station are not official NWS values.
T = Trace of Precipitation, MM = Missing Value Source: NWS Daily Summary

Daily Weather History Graph

Daily Weather History Graph

Search for Another Location

Airport or City:

Trip Planner

Search our weather history database for the weather conditions in past years. The results will help you decide how hot, cold, wet, or windy it might be!

Date:

Astronomy

Jan. 23, 2013 Rise Set
Actual Time 7:12 AM EST 5:13 PM EST
Civil Twilight 6:43 AM EST 5:41 PM EST
Nautical Twilight 6:11 AM EST 6:13 PM EST
Astronomical Twilight 5:40 AM EST 6:45 PM EST
Moon 2:22 PM EST (1/23) 4:20 AM EST (1/23)
Length of Visible Light 10h 57m
Length of Day
10h 01m
Waxing Gibbous, 89% of the Moon is Illuminated
Jan 23
Waxing Gibbous
Jan 26
Full
Feb 3
Last Quarter
Feb 10
New
Feb 17
First Quarter

Hourly Weather History & Observations

Time (EST) Temp. Windchill Dew Point Humidity Pressure Visibility Wind Dir Wind Speed Gust Speed Precip Events Conditions
12:53 AM 18.0 °F 6.9 °F 1.0 °F 48% 30.29 in 10.0 mi NNW 9.2 mph - N/A   Clear
1:53 AM 17.1 °F 5.8 °F 1.0 °F 50% 30.30 in 10.0 mi NNW 9.2 mph - N/A   Clear
2:53 AM 16.0 °F 6.3 °F 1.0 °F 52% 30.31 in 10.0 mi NNW 6.9 mph - N/A   Clear
3:53 AM 16.0 °F 7.4 °F 1.0 °F 52% 30.30 in 10.0 mi North 5.8 mph - N/A   Clear
4:53 AM 16.0 °F 7.4 °F 1.0 °F 52% 30.30 in 10.0 mi North 5.8 mph - N/A   Clear
5:53 AM 15.1 °F 3.3 °F 1.0 °F 54% 30.31 in 10.0 mi NNW 9.2 mph - N/A   Clear
6:53 AM 16.0 °F 2.9 °F 1.0 °F 52% 30.32 in 10.0 mi NNW 11.5 mph 17.3 mph N/A   Clear
7:53 AM 17.1 °F 7.6 °F 1.0 °F 50% 30.33 in 10.0 mi NNW 6.9 mph 16.1 mph N/A   Clear
8:53 AM 19.0 °F 6.8 °F 1.0 °F 46% 30.34 in 10.0 mi NW 11.5 mph 19.6 mph N/A   Clear
9:53 AM 21.9 °F 9.2 °F -0.9 °F 37% 30.34 in 10.0 mi WNW 13.8 mph 26.5 mph N/A   Clear
10:53 AM 24.1 °F 12.0 °F -4.0 °F 29% 30.33 in 10.0 mi WNW 13.8 mph 26.5 mph N/A   Clear
11:53 AM 25.0 °F 14.8 °F -2.0 °F 31% 30.29 in 10.0 mi NW 10.4 mph 21.9 mph N/A   Clear
12:53 PM 26.1 °F 15.0 °F 1.0 °F 34% 30.25 in 10.0 mi NW 12.7 mph 24.2 mph N/A   Clear
1:53 PM 26.1 °F 16.2 °F 1.0 °F 34% 30.23 in 10.0 mi NW 10.4 mph 20.7 mph N/A   Clear
2:53 PM 25.0 °F 16.3 °F 1.9 °F 37% 30.23 in 10.0 mi WNW 8.1 mph 18.4 mph N/A   Clear
3:53 PM 25.0 °F 16.3 °F 1.0 °F 36% 30.23 in 10.0 mi NW 8.1 mph - N/A   Overcast
4:53 PM 24.1 °F 15.2 °F 1.9 °F 38% 30.23 in 10.0 mi West 8.1 mph - N/A   Overcast
5:53 PM 21.9 °F 17.2 °F 1.9 °F 42% 30.24 in 10.0 mi NW 3.5 mph - N/A   Partly Cloudy
6:53 PM 17.1 °F - 8.1 °F 68% 30.23 in 10.0 mi Calm Calm - N/A   Scattered Clouds
7:53 PM 19.9 °F - 12.0 °F 71% 30.22 in 10.0 mi Calm Calm - N/A   Overcast
8:53 PM 21.9 °F - 7.0 °F 53% 30.20 in 10.0 mi Calm Calm - N/A   Overcast
9:53 PM 21.9 °F - 10.9 °F 63% 30.19 in 10.0 mi Calm Calm - N/A   Mostly Cloudy
10:53 PM 21.9 °F - 12.0 °F 66% 30.20 in 10.0 mi Calm Calm - N/A   Overcast
11:53 PM 21.9 °F - 10.9 °F 63% 30.19 in 10.0 mi Calm Calm - N/A   Overcast